Powrót do katalogu

STARLINK-3200

AktywnyŁącznośćVLEO
NORAD 49753·PAYLOAD·🇺🇸 United States

Wystrzelony Dec 2, 2021 z Cape Canaveral Space Force Station

Loading…

Następne Przeloty (najbliższe 24 godziny)

TLE

ŚwieżeSource: CelesTrak SupGP

Epoka: Sep 14, 2026, 20:48 UTC

1 49753C 21115AF  26257.86715278 -.00009114  00000+0 -26934-3 0  2574
2 49753  53.1601   8.0838 0001249  78.9308  49.5756 15.34386808    17

Śledź STARLINK-3200 w czasie rzeczywistym z AllMySat

Download on the App Store